STARLINK-34636, 64915

Orbit data source: Space-Track

STARLINK-34636, 64915 is a payload satellite owned by SpaceX/Seattle (US) in LEO that was launched on Sat, 26 Jul 2025 UTC via an FALCON 9 launch vehicle from the Air Force Eastern Test Range (AFETR). Payload-class satellites include a variety of spacecraft equipped with specific instruments for various scientific and technological missions. These include communications satellites like Starlink; space stations such as the ISS; scientific satellites like the Hubble; Earth observation satellites from companies like Planet Labs, Umbra, and HawkEye 360; GPS; miniature CubeSats for education and research; and military/defense satellites.

Loading next visibility...
Identifier
64915, 2025-157M
Orbit
LEO
Country
Flag of USUS
Related business
Manufacturer
SpaceX/Seattle
Mission
Operational Commercial Communications
Bus & Motor
STARLINK V2MO, Unknown motor
Mass
575 kg wet, ~530 kg dry
Launch date (UTC)
2025-07-26 (10 months ago)
Launch vehicle
FALCON 9
Launch site
Air Force Eastern Test Range (AFETR)
Object type
Payload
Rocket body
Debris
Shape & HBR
Box + 2 Pan, 17.7 m
Radar Cross Section
36.964 m², Large (>1 m²)

Expand to show TLE details & history
Last TLE update: 1 day ago

TLE from 1 day ago
0 STARLINK-34636
1 64915U 25157M   26144.84907220  .00017832  00000-0  61268-3 0  9991
2 64915  53.1606 351.9463 0000880  67.2084 292.9010 15.30203136 47785
Epoch: 2026-05-24T20:22Z
TLE epoch observation values (Epoch: 2026-05-24T20:22:39.838Z)
Latitude
0.00003°
Longitude
163.83501°
Altitude
475.871 km
Speed
7.629 km/s
True Right ascension
23h 27m 47s
True Declination
0° 00' 00"
Sunlit
Object was in daylight at epoch
Visualization orbit readout
Latitude
Unknown
Longitude
Unknown
Altitude
Unknown
Speed
Unknown
Apparent Right ascension
Unknown
Apparent Declination
Unknown
Sunlit
N/A
Visualization observer readout
Local Sidereal Time
06:10:11
Azimuth
Unknown
Elevation
Unknown
Doppler factor
Unknown
Orbital elements
Apogee altitude
476.065 km
Perigee altitude
474.859 km
Semi-major axis
6,853.599 km
Eccentricity
0.00009
Inclination
53.1606°
RAAN
351.9463°
Arg. of periapsis
67.2084°
True anomaly
292.89171°
Mean anomaly
292.901°
Eccentric anomaly
292.89636°
Mean motion
3.8253 °/min
Orbital period
94.11 mins
BSTAR
0.00061268
Loading maneuver chart data...
Computing Atmospheric mass density...
Loading historical data...
Loading historical data...
Loading historical data...
Loading historical data...
Loading historical data...
Loading historical data...
Loading historical data...

Documentation

Showing up to 5 results
|